Year,Month,Day,Hour,Minute,Value (Times are PST for temperature in C)
2017,03,15,00,00,8.80
2017,03,15,00,01,8.70
2017,03,15,00,02,8.70
2017,03,15,00,03,8.70
2017,03,15,00,04,8.70
2017,03,15,00,05,8.60
2017,03,15,00,06,8.60
2017,03,15,00,07,8.60
2017,03,15,00,08,8.60
2017,03,15,00,09,8.60
2017,03,15,00,10,8.50
2017,03,15,00,11,8.50
2017,03,15,00,12,8.50
2017,03,15,00,13,8.50
2017,03,15,00,14,8.50
2017,03,15,00,15,8.50
2017,03,15,00,16,8.50
2017,03,15,00,17,8.50
2017,03,15,00,18,8.50
2017,03,15,00,19,8.50
2017,03,15,00,20,8.40
2017,03,15,00,21,8.40
2017,03,15,00,22,8.30
2017,03,15,00,23,8.30
2017,03,15,00,24,8.20
2017,03,15,00,25,8.10
2017,03,15,00,26,8.00
2017,03,15,00,27,7.90
2017,03,15,00,28,7.90
2017,03,15,00,29,7.80
2017,03,15,00,30,7.80
2017,03,15,00,31,7.70
2017,03,15,00,32,7.70
2017,03,15,00,33,7.60
2017,03,15,00,34,7.50
2017,03,15,00,35,7.40
2017,03,15,00,36,7.40
2017,03,15,00,37,7.30
2017,03,15,00,38,7.20
2017,03,15,00,39,7.20
2017,03,15,00,40,7.20
2017,03,15,00,41,7.20
2017,03,15,00,42,7.10
2017,03,15,00,43,7.10
2017,03,15,00,44,7.10
2017,03,15,00,45,7.10
2017,03,15,00,46,7.10
2017,03,15,00,47,7.10
2017,03,15,00,48,7.10
2017,03,15,00,49,7.20
2017,03,15,00,50,7.20
2017,03,15,00,51,7.30
2017,03,15,00,52,7.30
2017,03,15,00,53,7.30
2017,03,15,00,54,7.40
2017,03,15,00,55,7.50
2017,03,15,00,56,7.60
2017,03,15,00,57,7.60
2017,03,15,00,58,7.60
2017,03,15,00,59,7.70
2017,03,15,01,00,7.70
2017,03,15,01,01,7.70
2017,03,15,01,02,7.70
2017,03,15,01,03,7.80
2017,03,15,01,04,7.80
2017,03,15,01,05,7.70
2017,03,15,01,06,7.70
2017,03,15,01,07,7.70
2017,03,15,01,08,7.70
2017,03,15,01,09,7.70
2017,03,15,01,10,7.70
2017,03,15,01,11,7.60
2017,03,15,01,12,7.60
2017,03,15,01,13,7.50
2017,03,15,01,14,7.50
2017,03,15,01,15,7.40
2017,03,15,01,16,7.30
2017,03,15,01,17,7.30
2017,03,15,01,18,7.30
2017,03,15,01,19,7.20
2017,03,15,01,20,7.20
2017,03,15,01,21,7.20
2017,03,15,01,22,7.20
2017,03,15,01,23,7.20
2017,03,15,01,24,7.20
2017,03,15,01,25,7.20
2017,03,15,01,26,7.20
2017,03,15,01,27,7.20
2017,03,15,01,28,7.10
2017,03,15,01,29,7.10
2017,03,15,01,30,7.00
2017,03,15,01,31,7.00
2017,03,15,01,32,6.90
2017,03,15,01,33,6.80
2017,03,15,01,34,6.80
2017,03,15,01,35,6.70
2017,03,15,01,36,6.70
2017,03,15,01,37,6.60
2017,03,15,01,38,6.50
2017,03,15,01,39,6.40
2017,03,15,01,40,6.30
2017,03,15,01,41,6.20
2017,03,15,01,42,6.10
2017,03,15,01,43,6.00
2017,03,15,01,44,6.00
2017,03,15,01,45,5.90
2017,03,15,01,46,5.80
2017,03,15,01,47,5.80
2017,03,15,01,48,5.70
2017,03,15,01,49,5.60
2017,03,15,01,50,5.60
2017,03,15,01,51,5.50
2017,03,15,01,52,5.50
2017,03,15,01,53,5.40
2017,03,15,01,54,5.30
2017,03,15,01,55,5.30
2017,03,15,01,56,5.20
2017,03,15,01,57,5.20
2017,03,15,01,58,5.20
2017,03,15,01,59,5.10
2017,03,15,02,00,5.10
2017,03,15,02,01,5.00
2017,03,15,02,02,5.00
2017,03,15,02,03,5.00
2017,03,15,02,04,4.90
2017,03,15,02,05,4.90
2017,03,15,02,06,4.90
2017,03,15,02,07,4.90
2017,03,15,02,08,4.90
2017,03,15,02,09,4.90
2017,03,15,02,10,4.80
2017,03,15,02,11,4.80
2017,03,15,02,12,4.80
2017,03,15,02,13,4.80
2017,03,15,02,14,4.70
2017,03,15,02,15,4.70
2017,03,15,02,16,4.70
2017,03,15,02,17,4.70
2017,03,15,02,18,4.70
2017,03,15,02,19,4.70
2017,03,15,02,20,4.70
2017,03,15,02,21,4.70
2017,03,15,02,22,4.70
2017,03,15,02,23,4.70
2017,03,15,02,24,4.70
2017,03,15,02,25,4.70
2017,03,15,02,26,4.70
2017,03,15,02,27,4.70
2017,03,15,02,28,4.70
2017,03,15,02,29,4.70
2017,03,15,02,30,4.60
2017,03,15,02,31,4.60
2017,03,15,02,32,4.60
2017,03,15,02,33,4.60
2017,03,15,02,34,4.50
2017,03,15,02,35,4.50
2017,03,15,02,36,4.50
2017,03,15,02,37,4.40
2017,03,15,02,38,4.40
2017,03,15,02,39,4.40
2017,03,15,02,40,4.40
2017,03,15,02,41,4.40
2017,03,15,02,42,4.40
2017,03,15,02,43,4.40
2017,03,15,02,44,4.30
2017,03,15,02,45,4.30
2017,03,15,02,46,4.30
2017,03,15,02,47,4.30
2017,03,15,02,48,4.20
2017,03,15,02,49,4.20
2017,03,15,02,50,4.10
2017,03,15,02,51,4.10
2017,03,15,02,52,4.00
2017,03,15,02,53,4.00
2017,03,15,02,54,3.90
2017,03,15,02,55,3.80
2017,03,15,02,56,3.70
2017,03,15,02,57,3.70
2017,03,15,02,58,3.60
2017,03,15,02,59,3.60
2017,03,15,03,00,3.60
2017,03,15,03,01,3.50
2017,03,15,03,02,3.40
2017,03,15,03,03,3.40
2017,03,15,03,04,3.40
2017,03,15,03,05,3.30
2017,03,15,03,06,3.30
2017,03,15,03,07,3.30
2017,03,15,03,08,3.30
2017,03,15,03,09,3.20
2017,03,15,03,10,3.20
2017,03,15,03,11,3.20
2017,03,15,03,12,3.20
2017,03,15,03,13,3.20
2017,03,15,03,14,3.10
2017,03,15,03,15,3.10
2017,03,15,03,16,3.10
2017,03,15,03,17,3.10
2017,03,15,03,18,3.10
2017,03,15,03,19,3.10
2017,03,15,03,20,3.10
2017,03,15,03,21,3.10
2017,03,15,03,22,3.10
2017,03,15,03,23,3.10
2017,03,15,03,24,3.20
2017,03,15,03,25,3.20
2017,03,15,03,26,3.20
2017,03,15,03,27,3.20
2017,03,15,03,28,3.20
2017,03,15,03,29,3.20
2017,03,15,03,30,3.20
2017,03,15,03,31,3.20
2017,03,15,03,32,3.20
2017,03,15,03,33,3.20
2017,03,15,03,34,3.20
2017,03,15,03,35,3.30
2017,03,15,03,36,3.30
2017,03,15,03,37,3.30
2017,03,15,03,38,3.30
2017,03,15,03,39,3.30
2017,03,15,03,40,3.30
2017,03,15,03,41,3.40
2017,03,15,03,42,3.40
2017,03,15,03,43,3.40
2017,03,15,03,44,3.40
2017,03,15,03,45,3.40
2017,03,15,03,46,3.40
2017,03,15,03,47,3.40
2017,03,15,03,48,3.40
2017,03,15,03,49,3.30
2017,03,15,03,50,3.30
2017,03,15,03,51,3.30
2017,03,15,03,52,3.30
2017,03,15,03,53,3.30
2017,03,15,03,54,3.30
2017,03,15,03,55,3.30
2017,03,15,03,56,3.20
2017,03,15,03,57,3.20
2017,03,15,03,58,3.20
2017,03,15,03,59,3.20
2017,03,15,04,00,3.20
2017,03,15,04,01,3.20
2017,03,15,04,02,3.20
2017,03,15,04,03,3.20
2017,03,15,04,04,3.20
2017,03,15,04,05,3.20
2017,03,15,04,06,3.20
2017,03,15,04,07,3.20
2017,03,15,04,08,3.20
2017,03,15,04,09,3.20
2017,03,15,04,10,3.20
2017,03,15,04,11,3.20
2017,03,15,04,12,3.10
2017,03,15,04,13,3.10
2017,03,15,04,14,3.10
2017,03,15,04,15,3.10
2017,03,15,04,16,3.10
2017,03,15,04,17,3.10
2017,03,15,04,18,3.10
2017,03,15,04,19,3.00
2017,03,15,04,20,3.00
2017,03,15,04,21,3.00
2017,03,15,04,22,3.00
2017,03,15,04,23,3.00
2017,03,15,04,24,3.00
2017,03,15,04,25,3.00
2017,03,15,04,26,3.00
2017,03,15,04,27,3.00
2017,03,15,04,28,3.00
2017,03,15,04,29,3.00
2017,03,15,04,30,3.00
2017,03,15,04,31,3.00
2017,03,15,04,32,3.00
2017,03,15,04,33,3.00
2017,03,15,04,34,3.00
2017,03,15,04,35,3.00
2017,03,15,04,36,3.00
2017,03,15,04,37,3.00
2017,03,15,04,38,3.00
2017,03,15,04,39,2.90
2017,03,15,04,40,2.90
2017,03,15,04,41,2.90
2017,03,15,04,42,2.90
2017,03,15,04,43,2.90
2017,03,15,04,44,2.90
2017,03,15,04,45,2.90
2017,03,15,04,46,2.90
2017,03,15,04,47,2.90
2017,03,15,04,48,2.90
2017,03,15,04,49,2.90
2017,03,15,04,50,2.90
2017,03,15,04,51,2.90
2017,03,15,04,52,2.80
2017,03,15,04,53,2.80
2017,03,15,04,54,2.80
2017,03,15,04,55,2.80
2017,03,15,04,56,2.90
2017,03,15,04,57,2.80
2017,03,15,04,58,2.90
2017,03,15,04,59,2.90
2017,03,15,05,00,2.90
2017,03,15,05,01,2.90
2017,03,15,05,02,2.90
2017,03,15,05,03,2.90
2017,03,15,05,04,2.90
2017,03,15,05,05,2.90
2017,03,15,05,06,2.90
2017,03,15,05,07,2.90
2017,03,15,05,08,2.90
2017,03,15,05,09,2.90
2017,03,15,05,10,2.90
2017,03,15,05,11,2.90
2017,03,15,05,12,2.90
2017,03,15,05,13,2.90
2017,03,15,05,14,2.90
2017,03,15,05,15,2.90
2017,03,15,05,16,2.90
2017,03,15,05,17,2.90
2017,03,15,05,18,2.90
2017,03,15,05,19,2.90
2017,03,15,05,20,2.90
2017,03,15,05,21,2.90
2017,03,15,05,22,3.00
2017,03,15,05,23,3.00
2017,03,15,05,24,3.10
2017,03,15,05,25,3.10
2017,03,15,05,26,3.20
2017,03,15,05,27,3.30
2017,03,15,05,28,3.30
2017,03,15,05,29,3.30
2017,03,15,05,30,3.30
2017,03,15,05,31,3.30
2017,03,15,05,32,3.30
2017,03,15,05,33,3.30
2017,03,15,05,34,3.30
2017,03,15,05,35,3.30
2017,03,15,05,36,3.30
2017,03,15,05,37,3.40
2017,03,15,05,38,3.40
2017,03,15,05,39,3.40
2017,03,15,05,40,3.40
2017,03,15,05,41,3.40
2017,03,15,05,42,3.40
2017,03,15,05,43,3.40
2017,03,15,05,44,3.40
2017,03,15,05,45,3.40
2017,03,15,05,46,3.40
2017,03,15,05,47,3.30
2017,03,15,05,48,3.30
2017,03,15,05,49,3.30
2017,03,15,05,50,3.30
2017,03,15,05,51,3.30
2017,03,15,05,52,3.30
2017,03,15,05,53,3.30
2017,03,15,05,54,3.20
2017,03,15,05,55,3.20
2017,03,15,05,56,3.30
2017,03,15,05,57,3.30
2017,03,15,05,58,3.20
2017,03,15,05,59,3.20
2017,03,15,06,00,3.20
2017,03,15,06,01,3.20
2017,03,15,06,02,3.20
2017,03,15,06,03,3.20
2017,03,15,06,04,3.20
2017,03,15,06,05,3.20
2017,03,15,06,06,3.10
2017,03,15,06,07,3.10
2017,03,15,06,08,3.10
2017,03,15,06,09,3.10
2017,03,15,06,10,3.10
2017,03,15,06,11,3.10
2017,03,15,06,12,3.10
2017,03,15,06,13,3.00
2017,03,15,06,14,3.00
2017,03,15,06,15,3.00
2017,03,15,06,16,3.00
2017,03,15,06,17,3.00
2017,03,15,06,18,3.00
2017,03,15,06,19,3.00
2017,03,15,06,20,3.00
2017,03,15,06,21,3.00
2017,03,15,06,22,3.00
2017,03,15,06,23,2.90
2017,03,15,06,24,2.90
2017,03,15,06,25,2.90
2017,03,15,06,26,2.90
2017,03,15,06,27,2.90
2017,03,15,06,28,2.90
2017,03,15,06,29,2.90
2017,03,15,06,30,2.90
2017,03,15,06,31,2.90
2017,03,15,06,32,2.90
2017,03,15,06,33,2.90
2017,03,15,06,34,2.90
2017,03,15,06,35,2.90
2017,03,15,06,36,2.80
2017,03,15,06,37,2.80
2017,03,15,06,38,2.80
2017,03,15,06,39,2.80
2017,03,15,06,40,2.80
2017,03,15,06,41,2.80
2017,03,15,06,42,2.80
2017,03,15,06,43,2.80
2017,03,15,06,44,2.80
2017,03,15,06,45,2.80
2017,03,15,06,46,2.80
2017,03,15,06,47,2.80
2017,03,15,06,48,2.80
2017,03,15,06,49,2.80
2017,03,15,06,50,2.80
2017,03,15,06,51,2.80
2017,03,15,06,52,2.80
2017,03,15,06,53,2.80
2017,03,15,06,54,2.80
2017,03,15,06,55,2.80
2017,03,15,06,56,2.80
2017,03,15,06,57,2.80
2017,03,15,06,58,2.80
2017,03,15,06,59,2.80
2017,03,15,07,00,2.80
2017,03,15,07,01,2.80
2017,03,15,07,02,2.80
2017,03,15,07,03,2.80
2017,03,15,07,04,2.80
2017,03,15,07,05,2.80
2017,03,15,07,06,2.80
2017,03,15,07,07,2.80
2017,03,15,07,08,2.80
2017,03,15,07,09,2.80
2017,03,15,07,10,2.80
2017,03,15,07,11,2.80
2017,03,15,07,12,2.80
2017,03,15,07,13,2.80
2017,03,15,07,14,2.80
2017,03,15,07,15,2.80
2017,03,15,07,16,2.80
2017,03,15,07,17,2.80
2017,03,15,07,18,2.80
2017,03,15,07,19,2.80
2017,03,15,07,20,2.80
2017,03,15,07,21,2.80
2017,03,15,07,22,2.80
2017,03,15,07,23,2.80
2017,03,15,07,24,2.90
2017,03,15,07,25,2.90
2017,03,15,07,26,2.90
2017,03,15,07,27,2.90
2017,03,15,07,28,2.90
2017,03,15,07,29,2.90
2017,03,15,07,30,2.90
2017,03,15,07,31,2.90
2017,03,15,07,32,2.90
2017,03,15,07,33,2.90
2017,03,15,07,34,2.90
2017,03,15,07,35,2.90
2017,03,15,07,36,2.90
2017,03,15,07,37,2.90
2017,03,15,07,38,2.90
2017,03,15,07,39,2.80
2017,03,15,07,40,2.80
2017,03,15,07,41,2.80
2017,03,15,07,42,2.80
2017,03,15,07,43,2.80
2017,03,15,07,44,2.90
2017,03,15,07,45,2.80
2017,03,15,07,46,2.80
2017,03,15,07,47,2.80
2017,03,15,07,48,2.80
2017,03,15,07,49,2.80
2017,03,15,07,50,2.80
2017,03,15,07,51,2.80
2017,03,15,07,52,2.80
2017,03,15,07,53,2.80
2017,03,15,07,54,2.80
2017,03,15,07,55,2.80
2017,03,15,07,56,2.80
2017,03,15,07,57,2.80
2017,03,15,07,58,2.80
2017,03,15,07,59,2.80
2017,03,15,08,00,2.80
2017,03,15,08,01,2.80
2017,03,15,08,02,2.80
2017,03,15,08,03,2.80
2017,03,15,08,04,2.80
2017,03,15,08,05,2.80
2017,03,15,08,06,2.80
2017,03,15,08,07,2.80
2017,03,15,08,08,2.80
2017,03,15,08,09,2.80
2017,03,15,08,10,2.80
2017,03,15,08,11,2.80
2017,03,15,08,12,2.80
2017,03,15,08,13,2.80
2017,03,15,08,14,2.80
2017,03,15,08,15,2.90
2017,03,15,08,16,2.90
2017,03,15,08,17,2.90
2017,03,15,08,18,2.90
2017,03,15,08,19,2.90
2017,03,15,08,20,3.00
2017,03,15,08,21,3.00
2017,03,15,08,22,3.00
2017,03,15,08,23,3.00
2017,03,15,08,24,3.00
2017,03,15,08,25,3.10
2017,03,15,08,26,3.10
2017,03,15,08,27,3.10
2017,03,15,08,28,3.20
2017,03,15,08,29,3.20
2017,03,15,08,30,3.20
2017,03,15,08,31,3.20
2017,03,15,08,32,3.20
2017,03,15,08,33,3.20
2017,03,15,08,34,3.20
2017,03,15,08,35,3.30
2017,03,15,08,36,3.30
2017,03,15,08,37,3.30
2017,03,15,08,38,3.30
2017,03,15,08,39,3.30
2017,03,15,08,40,3.40
2017,03,15,08,41,3.40
2017,03,15,08,42,3.40
2017,03,15,08,43,3.40
2017,03,15,08,44,3.50
2017,03,15,08,45,3.50
2017,03,15,08,46,3.50
2017,03,15,08,47,3.60
2017,03,15,08,48,3.60
2017,03,15,08,49,3.60
2017,03,15,08,50,3.60
2017,03,15,08,51,3.60
2017,03,15,08,52,3.70
2017,03,15,08,53,3.70
2017,03,15,08,54,3.70
2017,03,15,08,55,3.70
2017,03,15,08,56,3.70
2017,03,15,08,57,3.70
2017,03,15,08,58,3.70
2017,03,15,08,59,3.70
2017,03,15,09,00,3.80
2017,03,15,09,01,3.80
2017,03,15,09,02,3.80
2017,03,15,09,03,3.80
2017,03,15,09,04,3.80
2017,03,15,09,05,3.90
2017,03,15,09,06,3.90
2017,03,15,09,07,3.90
2017,03,15,09,08,3.90
2017,03,15,09,09,3.90
2017,03,15,09,10,4.00
2017,03,15,09,11,4.00
2017,03,15,09,12,4.00
2017,03,15,09,13,4.10
2017,03,15,09,14,4.10
2017,03,15,09,15,4.10
2017,03,15,09,16,4.20
2017,03,15,09,17,4.20
2017,03,15,09,18,4.20
2017,03,15,09,19,4.30
2017,03,15,09,20,4.30
2017,03,15,09,21,4.30
2017,03,15,09,22,4.30
2017,03,15,09,23,4.40
2017,03,15,09,24,4.40
2017,03,15,09,25,4.50
2017,03,15,09,26,4.50
2017,03,15,09,27,4.60
2017,03,15,09,28,4.60
2017,03,15,09,29,4.60
2017,03,15,09,30,4.70
2017,03,15,09,31,4.70
2017,03,15,09,32,4.70
2017,03,15,09,33,4.80
2017,03,15,09,34,4.80
2017,03,15,09,35,4.90
2017,03,15,09,36,4.90
2017,03,15,09,37,5.00
2017,03,15,09,38,5.00
2017,03,15,09,39,5.00
2017,03,15,09,40,5.10
2017,03,15,09,41,5.10
2017,03,15,09,42,5.10
2017,03,15,09,43,5.20
2017,03,15,09,44,5.20
2017,03,15,09,45,5.20
2017,03,15,09,46,5.30
2017,03,15,09,47,5.30
2017,03,15,09,48,5.30
2017,03,15,09,49,5.30
2017,03,15,09,50,5.40
2017,03,15,09,51,5.40
2017,03,15,09,52,5.50
2017,03,15,09,53,5.50
2017,03,15,09,54,5.60
2017,03,15,09,55,5.70
2017,03,15,09,56,5.70
2017,03,15,09,57,5.70
2017,03,15,09,58,5.80
2017,03,15,09,59,5.80
2017,03,15,10,00,5.80
2017,03,15,10,01,5.90
2017,03,15,10,02,5.90
2017,03,15,10,03,6.00
2017,03,15,10,04,6.00
2017,03,15,10,05,6.10
2017,03,15,10,06,6.10
2017,03,15,10,07,6.10
2017,03,15,10,08,6.20
2017,03,15,10,09,6.20
2017,03,15,10,10,6.30
2017,03,15,10,11,6.30
2017,03,15,10,12,6.30
2017,03,15,10,13,6.40
2017,03,15,10,14,6.50
2017,03,15,10,15,6.50
2017,03,15,10,16,6.60
2017,03,15,10,17,6.70
2017,03,15,10,18,6.70
2017,03,15,10,19,6.80
2017,03,15,10,20,6.80
2017,03,15,10,21,6.90
2017,03,15,10,22,7.10
2017,03,15,10,23,7.20
2017,03,15,10,24,7.20
2017,03,15,10,25,7.40
2017,03,15,10,26,7.50
2017,03,15,10,27,7.70
2017,03,15,10,28,7.80
2017,03,15,10,29,7.90
2017,03,15,10,30,8.00
2017,03,15,10,31,8.10
2017,03,15,10,32,8.20
2017,03,15,10,33,8.30
2017,03,15,10,34,8.30
2017,03,15,10,35,8.40
2017,03,15,10,36,8.50
2017,03,15,10,37,8.60
2017,03,15,10,38,8.60
2017,03,15,10,39,8.70
2017,03,15,10,40,8.70
2017,03,15,10,41,8.80
2017,03,15,10,42,8.80
2017,03,15,10,43,8.80
2017,03,15,10,44,8.80
2017,03,15,10,45,8.80
2017,03,15,10,46,8.70
2017,03,15,10,47,8.70
2017,03,15,10,48,8.70
2017,03,15,10,49,8.60
2017,03,15,10,50,8.60
2017,03,15,10,51,8.60
2017,03,15,10,52,8.70
2017,03,15,10,53,8.70
2017,03,15,10,54,8.70
2017,03,15,10,55,8.70
2017,03,15,10,56,8.80
2017,03,15,10,57,8.80
2017,03,15,10,58,8.80
2017,03,15,10,59,8.90
2017,03,15,11,00,8.90
2017,03,15,11,01,8.90
2017,03,15,11,02,8.90
2017,03,15,11,03,9.00
2017,03,15,11,04,9.00
2017,03,15,11,05,9.10
2017,03,15,11,06,9.10
2017,03,15,11,07,9.10
2017,03,15,11,08,9.10
2017,03,15,11,09,9.10
2017,03,15,11,10,9.10
2017,03,15,11,11,9.10
2017,03,15,11,12,9.00
2017,03,15,11,13,9.00
2017,03,15,11,14,8.90
2017,03,15,11,15,8.90
2017,03,15,11,16,8.90
2017,03,15,11,17,8.80
2017,03,15,11,18,8.80
2017,03,15,11,19,8.80
2017,03,15,11,20,8.80
2017,03,15,11,21,8.80
2017,03,15,11,22,8.90
2017,03,15,11,23,8.90
2017,03,15,11,24,8.90
2017,03,15,11,25,9.00
2017,03,15,11,26,9.10
2017,03,15,11,27,9.10
2017,03,15,11,28,9.10
2017,03,15,11,29,9.20
2017,03,15,11,30,9.20
2017,03,15,11,31,9.20
2017,03,15,11,32,9.30
2017,03,15,11,33,9.30
2017,03,15,11,34,9.40
2017,03,15,11,35,9.40
2017,03,15,11,36,9.40
2017,03,15,11,37,9.50
2017,03,15,11,38,9.60
2017,03,15,11,39,9.70
2017,03,15,11,40,9.80
2017,03,15,11,41,9.80
2017,03,15,11,42,9.90
2017,03,15,11,43,9.80
2017,03,15,11,44,9.80
2017,03,15,11,45,9.80
2017,03,15,11,46,9.60
2017,03,15,11,47,9.60
2017,03,15,11,48,9.60
2017,03,15,11,49,9.60
2017,03,15,11,50,9.60
2017,03,15,11,51,9.60
2017,03,15,11,52,9.60
2017,03,15,11,53,9.60
2017,03,15,11,54,9.70
2017,03,15,11,55,9.70
2017,03,15,11,56,9.70
2017,03,15,11,57,9.70
2017,03,15,11,58,9.70
2017,03,15,11,59,9.70
2017,03,15,12,00,9.70
2017,03,15,12,01,9.70
2017,03,15,12,02,9.70
2017,03,15,12,03,9.80
2017,03,15,12,04,9.80
2017,03,15,12,05,9.90
2017,03,15,12,06,10.00
2017,03,15,12,07,10.00
2017,03,15,12,08,10.10
2017,03,15,12,09,10.10
2017,03,15,12,10,10.10
2017,03,15,12,11,10.10
2017,03,15,12,12,10.20
2017,03,15,12,13,10.20
2017,03,15,12,14,10.30
2017,03,15,12,15,10.30
2017,03,15,12,16,10.30
2017,03,15,12,17,10.30
2017,03,15,12,18,10.40
2017,03,15,12,19,10.40
2017,03,15,12,20,10.50
2017,03,15,12,21,10.60
2017,03,15,12,22,10.70
2017,03,15,12,23,10.80
2017,03,15,12,24,10.90
2017,03,15,12,25,11.00
2017,03,15,12,26,11.00
2017,03,15,12,27,11.00
2017,03,15,12,28,11.10
2017,03,15,12,29,11.00
2017,03,15,12,30,11.00
2017,03,15,12,31,10.90
2017,03,15,12,32,10.80
2017,03,15,12,33,10.80
2017,03,15,12,34,10.80
2017,03,15,12,35,10.80
2017,03,15,12,36,10.80
2017,03,15,12,37,10.80
2017,03,15,12,38,10.90
2017,03,15,12,39,10.90
2017,03,15,12,40,10.90
2017,03,15,12,41,10.90
2017,03,15,12,42,10.90
2017,03,15,12,43,10.90
2017,03,15,12,44,10.90
2017,03,15,12,45,10.80
2017,03,15,12,46,10.70
2017,03,15,12,47,10.60
2017,03,15,12,48,10.60
2017,03,15,12,49,10.60
2017,03,15,12,50,10.60
2017,03,15,12,51,10.60
2017,03,15,12,52,10.60
2017,03,15,12,53,10.60
2017,03,15,12,54,10.50
2017,03,15,12,55,10.50
2017,03,15,12,56,10.40
2017,03,15,12,57,10.40
2017,03,15,12,58,10.40
2017,03,15,12,59,10.40
2017,03,15,13,00,10.40
2017,03,15,13,01,10.40
2017,03,15,13,02,10.50
2017,03,15,13,03,10.50
2017,03,15,13,04,10.50
2017,03,15,13,05,10.50
2017,03,15,13,06,10.50
2017,03,15,13,07,10.50
2017,03,15,13,08,10.40
2017,03,15,13,09,10.40
2017,03,15,13,10,10.40
2017,03,15,13,11,10.50
2017,03,15,13,12,10.50
2017,03,15,13,13,10.50
2017,03,15,13,14,10.60
2017,03,15,13,15,10.60
2017,03,15,13,16,10.60
2017,03,15,13,17,10.50
2017,03,15,13,18,10.50
2017,03,15,13,19,10.50
2017,03,15,13,20,10.60
2017,03,15,13,21,10.60
2017,03,15,13,22,10.60
2017,03,15,13,23,10.60
2017,03,15,13,24,10.60
2017,03,15,13,25,10.70
2017,03,15,13,26,10.70
2017,03,15,13,27,10.80
2017,03,15,13,28,10.80
2017,03,15,13,29,10.80
2017,03,15,13,30,10.80
2017,03,15,13,31,10.80
2017,03,15,13,32,10.80
2017,03,15,13,33,10.80
2017,03,15,13,34,10.80
2017,03,15,13,35,10.70
2017,03,15,13,36,10.70
2017,03,15,13,37,10.70
2017,03,15,13,38,10.70
2017,03,15,13,39,10.70
2017,03,15,13,40,10.70
2017,03,15,13,41,10.70
2017,03,15,13,42,10.70
2017,03,15,13,43,10.70
2017,03,15,13,44,10.70
2017,03,15,13,45,10.70
2017,03,15,13,46,10.70
2017,03,15,13,47,10.70
2017,03,15,13,48,10.80
2017,03,15,13,49,10.90
2017,03,15,13,50,10.90
2017,03,15,13,51,11.00
2017,03,15,13,52,10.90
2017,03,15,13,53,10.90
2017,03,15,13,54,10.90
2017,03,15,13,55,10.90
2017,03,15,13,56,10.90
2017,03,15,13,57,10.90
2017,03,15,13,58,10.90
2017,03,15,13,59,10.90
2017,03,15,14,00,10.90
2017,03,15,14,01,10.80
2017,03,15,14,02,10.70
2017,03,15,14,03,10.70
2017,03,15,14,04,10.70
2017,03,15,14,05,10.70
2017,03,15,14,06,10.70
2017,03,15,14,07,10.70
2017,03,15,14,08,10.60
2017,03,15,14,09,10.60
2017,03,15,14,10,10.60
2017,03,15,14,11,10.60
2017,03,15,14,12,10.70
2017,03,15,14,13,10.70
2017,03,15,14,14,10.70
2017,03,15,14,15,10.70
2017,03,15,14,16,10.70
2017,03,15,14,17,10.70
2017,03,15,14,18,10.70
2017,03,15,14,19,10.70
2017,03,15,14,20,10.70
2017,03,15,14,21,10.60
2017,03,15,14,22,10.60
2017,03,15,14,23,10.60
2017,03,15,14,24,10.60
2017,03,15,14,25,10.60
2017,03,15,14,26,10.60
2017,03,15,14,27,10.70
2017,03,15,14,28,10.70
2017,03,15,14,29,10.80
2017,03,15,14,30,10.80
2017,03,15,14,31,10.80
2017,03,15,14,32,10.90
2017,03,15,14,33,10.90
2017,03,15,14,34,10.80
2017,03,15,14,35,10.80
2017,03,15,14,36,10.80
2017,03,15,14,37,10.80
2017,03,15,14,38,10.70
2017,03,15,14,39,10.70
2017,03,15,14,40,10.60
2017,03,15,14,41,10.60
2017,03,15,14,42,10.50
2017,03,15,14,43,10.40
2017,03,15,14,44,10.40
2017,03,15,14,45,10.40
2017,03,15,14,46,10.40
2017,03,15,14,47,10.40
2017,03,15,14,48,10.40
2017,03,15,14,49,10.30
2017,03,15,14,50,10.30
2017,03,15,14,51,10.30
2017,03,15,14,52,10.20
2017,03,15,14,53,10.20
2017,03,15,14,54,10.20
2017,03,15,14,55,10.10
2017,03,15,14,56,10.10
2017,03,15,14,57,10.10
2017,03,15,14,58,10.10
2017,03,15,14,59,10.10
2017,03,15,15,00,10.10
2017,03,15,15,01,10.10
2017,03,15,15,02,10.10
2017,03,15,15,03,10.00
2017,03,15,15,04,10.00
2017,03,15,15,05,10.10
2017,03,15,15,06,10.10
2017,03,15,15,07,10.00
2017,03,15,15,08,10.00
2017,03,15,15,09,10.00
2017,03,15,15,10,10.10
2017,03,15,15,11,10.00
2017,03,15,15,12,10.00
2017,03,15,15,13,10.10
2017,03,15,15,14,10.00
2017,03,15,15,15,10.00
2017,03,15,15,16,10.00
2017,03,15,15,17,10.00
2017,03,15,15,18,10.00
2017,03,15,15,19,9.90
2017,03,15,15,20,9.90
2017,03,15,15,21,9.90
2017,03,15,15,22,9.90
2017,03,15,15,23,9.90
2017,03,15,15,24,9.90
2017,03,15,15,25,9.90
2017,03,15,15,26,9.90
2017,03,15,15,27,10.00
2017,03,15,15,28,10.00
2017,03,15,15,29,10.00
2017,03,15,15,30,9.90
2017,03,15,15,31,9.90
2017,03,15,15,32,9.90
2017,03,15,15,33,9.80
2017,03,15,15,34,9.80
2017,03,15,15,35,9.80
2017,03,15,15,36,9.80
2017,03,15,15,37,9.80
2017,03,15,15,38,9.80
2017,03,15,15,39,9.80
2017,03,15,15,40,9.80
2017,03,15,15,41,9.80
2017,03,15,15,42,9.80
2017,03,15,15,43,9.80
2017,03,15,15,44,9.80
2017,03,15,15,45,9.80
2017,03,15,15,46,9.80
2017,03,15,15,47,9.80
2017,03,15,15,48,9.80
2017,03,15,15,49,9.90
2017,03,15,15,50,9.90
2017,03,15,15,51,9.90
2017,03,15,15,52,9.90
2017,03,15,15,53,9.90
2017,03,15,15,54,9.90
2017,03,15,15,55,9.90
2017,03,15,15,56,9.80
2017,03,15,15,57,9.80
2017,03,15,15,58,9.80
2017,03,15,15,59,9.80
2017,03,15,16,00,9.80
2017,03,15,16,01,9.70
2017,03,15,16,02,9.70
2017,03,15,16,03,9.70
2017,03,15,16,04,9.70
2017,03,15,16,05,9.70
2017,03,15,16,06,9.80
2017,03,15,16,07,9.80
2017,03,15,16,08,9.80
2017,03,15,16,09,9.80
2017,03,15,16,10,9.70
2017,03,15,16,11,9.70
2017,03,15,16,12,9.70
2017,03,15,16,13,9.60
2017,03,15,16,14,9.60
2017,03,15,16,15,9.60
2017,03,15,16,16,9.50
2017,03,15,16,17,9.40
2017,03,15,16,18,9.30
2017,03,15,16,19,9.30
2017,03,15,16,20,9.20
2017,03,15,16,21,9.20
2017,03,15,16,22,9.20
2017,03,15,16,23,9.20
2017,03,15,16,24,9.20
2017,03,15,16,25,9.10
2017,03,15,16,26,9.10
2017,03,15,16,27,9.10
2017,03,15,16,28,9.10
2017,03,15,16,29,9.00
2017,03,15,16,30,9.00
2017,03,15,16,31,9.00
2017,03,15,16,32,9.00
2017,03,15,16,33,9.00
2017,03,15,16,34,8.90
2017,03,15,16,35,8.90
2017,03,15,16,36,8.90
2017,03,15,16,37,8.90
2017,03,15,16,38,8.90
2017,03,15,16,39,8.90
2017,03,15,16,40,8.90
2017,03,15,16,41,8.80
2017,03,15,16,42,8.80
2017,03,15,16,43,8.80
2017,03,15,16,44,8.80
2017,03,15,16,45,8.80
2017,03,15,16,46,8.80
2017,03,15,16,47,8.80
2017,03,15,16,48,8.80
2017,03,15,16,49,8.90
2017,03,15,16,50,8.90
2017,03,15,16,51,8.90
2017,03,15,16,52,8.90
2017,03,15,16,53,8.90
2017,03,15,16,54,8.90
2017,03,15,16,55,8.80
2017,03,15,16,56,8.80
2017,03,15,16,57,8.80
2017,03,15,16,58,8.80
2017,03,15,16,59,8.80
2017,03,15,17,00,8.80
2017,03,15,17,01,8.80
2017,03,15,17,02,8.80
2017,03,15,17,03,8.80
2017,03,15,17,04,8.80
2017,03,15,17,05,8.80
2017,03,15,17,06,8.80
2017,03,15,17,07,8.70
2017,03,15,17,08,8.70
2017,03,15,17,09,8.70
2017,03,15,17,10,8.70
2017,03,15,17,11,8.70
2017,03,15,17,12,8.70
2017,03,15,17,13,8.70
2017,03,15,17,14,8.70
2017,03,15,17,15,8.70
2017,03,15,17,16,8.70
2017,03,15,17,17,8.70
2017,03,15,17,18,8.70
2017,03,15,17,19,8.70
2017,03,15,17,20,8.70
2017,03,15,17,21,8.60
2017,03,15,17,22,8.60
2017,03,15,17,23,8.60
2017,03,15,17,24,8.60
2017,03,15,17,25,8.60
2017,03,15,17,26,8.60
2017,03,15,17,27,8.50
2017,03,15,17,28,8.50
2017,03,15,17,29,8.50
2017,03,15,17,30,8.50
2017,03,15,17,31,8.50
2017,03,15,17,32,8.40
2017,03,15,17,33,8.40
2017,03,15,17,34,8.40
2017,03,15,17,35,8.40
2017,03,15,17,36,8.40
2017,03,15,17,37,8.40
2017,03,15,17,38,8.40
2017,03,15,17,39,8.30
2017,03,15,17,40,8.30
2017,03,15,17,41,8.30
2017,03,15,17,42,8.30
2017,03,15,17,43,8.20
2017,03,15,17,44,8.20
2017,03,15,17,45,8.20
2017,03,15,17,46,8.10
2017,03,15,17,47,8.10
2017,03,15,17,48,8.10
2017,03,15,17,49,8.10
2017,03,15,17,50,8.00
2017,03,15,17,51,8.00
2017,03,15,17,52,8.00
2017,03,15,17,53,8.00
2017,03,15,17,54,8.00
2017,03,15,17,55,8.00
2017,03,15,17,56,7.90
2017,03,15,17,57,7.90